Home   Weather   Liverpool   Past weeks

Flag for United Kingdom Past Weather in Liverpool, England, United Kingdom — Yesterday and Last 2 Weeks

Now
64 °F

Scattered clouds.


Feels Like: 64 °F
Forecast: 55 / 63 °F
Wind: 13 mph from Southwest

Location: Liverpool Airport

Current Time: Jul 20, 2017 at 7:51:15 pm

Latest Report: Jul 20, 2017 at 7:20 pm


Visibility: N/A

Pressure: 29.74 "Hg

Humidity: 52%

Dew Point: 46 °F

Location of LiverpoolLocation

Past Weather in Liverpool — Graph

°F

Liverpool Temperature Yesterday

Maximum temperature yesterday: 75 °F (at 12:20 pm)
Minimum temperature yesterday: 59 °F (at 3:20 am)
Average temperature yesterday: 67 °F

High & Low Weather Summary for the Past Weeks

 TemperatureHumidityPressure
High79 °F (Jul 18, 2:20 pm)100% (Jul 11, 6:50 am)30.27 "Hg (Jul 11, 6:50 am)
Low50 °F (Jul 12, 4:50 am)39% (Jul 18, 3:20 pm)29.56 "Hg (Jul 19, 3:20 pm)
Average63 °F76%29.98 "Hg
* Reported Jul 5 6:20 pm — Jul 20 6:20 pm, Liverpool. Weather by CustomWeather, © 2017

Note: Actual official high and low records may vary slightly from our data, if they occured in-between our weather recording intervals... More about our weather records

Advertising

Liverpool Weather History for the Previous 24 Hours

Scroll right to see more
 ConditionsComfort  
Time TempWeatherWind HumidityBarometerVisibility
6:20 pm
Thu, Jul 20
64 °FScattered clouds.14 mph49%29.74 "HgN/A
5:50 pm64 °FScattered clouds.13 mph46%29.74 "HgN/A
5:20 pm66 °FScattered clouds.13 mph49%29.74 "HgN/A
4:50 pm63 °FScattered clouds.6 mph59%29.74 "HgN/A
4:20 pm63 °FScattered clouds.9 mph56%29.74 "HgN/A
3:50 pm63 °FScattered clouds.8 mph59%29.74 "HgN/A
3:20 pm63 °FScattered clouds.9 mph64%29.74 "HgN/A
2:50 pm63 °FScattered clouds.8 mph59%29.74 "HgN/A
2:20 pm63 °FScattered clouds.12 mph59%29.74 "HgN/A
1:50 pm59 °FScattered clouds.14 mph63%29.74 "HgN/A
12:50 pm57 °FScattered clouds.15 mph72%29.74 "HgN/A
12:20 pm59 °FScattered clouds.18 mph68%29.74 "HgN/A
11:50 am59 °FBroken clouds.17 mph59%29.74 "HgN/A
11:20 am59 °FBroken clouds.20 mph72%29.74 "HgN/A
10:50 am59 °FBroken clouds.14 mph72%29.71 "HgN/A
10:20 am59 °FScattered clouds.15 mph72%29.71 "HgN/A
9:50 am59 °FScattered clouds.15 mph77%29.71 "HgN/A
9:20 am59 °FScattered clouds.15 mph77%29.71 "HgN/A
8:50 am57 °FPassing clouds.16 mph77%29.71 "HgN/A
8:20 am57 °FScattered clouds.16 mph77%29.68 "HgN/A
7:50 am55 °FScattered clouds.8 mph88%29.68 "HgN/A
7:20 am55 °FLight rain. Broken clouds.10 mph88%29.68 "Hg4 mi
6:50 am55 °FLight rain. Broken clouds.14 mph94%29.68 "Hg3 mi
6:20 am55 °FLight rain. Broken clouds.14 mph88%29.68 "Hg3 mi
5:50 am55 °FLight rain. Partly sunny.13 mph94%29.68 "Hg4 mi
5:20 am55 °FSprinkles. Broken clouds.15 mph94%29.68 "Hg5 mi
4:50 am55 °FPartly cloudy.15 mph88%29.68 "HgN/A
4:20 am57 °FPartly cloudy.14 mph94%29.65 "HgN/A
3:50 am57 °FPartly cloudy.16 mph94%29.65 "HgN/A
3:20 am57 °FPartly cloudy.17 mph94%29.65 "HgN/A
2:50 am59 °FPartly cloudy.14 mph94%29.65 "HgN/A
2:20 am59 °FPartly cloudy.16 mph94%29.65 "HgN/A
1:50 am61 °FPartly cloudy.15 mph88%29.65 "HgN/A
1:20 am61 °FPartly cloudy.17 mph94%29.65 "HgN/A
12:50 am63 °FPartly cloudy.12 mph88%29.65 "HgN/A
12:20 am64 °FPartly cloudy.8 mph83%29.65 "HgN/A
11:50 pm
Wed, Jul 19
64 °FPartly cloudy.10 mph88%29.62 "HgN/A
11:20 pm66 °FPartly cloudy.7 mph88%29.62 "HgN/A
10:50 pm66 °FPassing clouds.9 mph88%29.62 "HgN/A
10:20 pm64 °FPassing clouds.5 mph94%29.62 "HgN/A
9:50 pm66 °FPartly cloudy.5 mph94%29.62 "Hg6 mi
9:20 pm66 °FBroken clouds.5 mph94%29.62 "Hg6 mi
8:50 pm66 °FDrizzle. Broken clouds.5 mph94%29.59 "Hg6 mi
8:20 pm66 °FDrizzle. Broken clouds.6 mph94%29.59 "Hg6 mi
7:50 pm66 °FScattered showers. Broken clouds.7 mph94%29.59 "HgN/A
7:20 pm68 °FScattered showers. Partly sunny.7 mph88%29.59 "HgN/A
Weather by CustomWeather, © 2017

See weather overviewHow to use our weather pages